Location: Beuerbach
(48.1459°N, 10.9174°E)
Time: 09:59:07
(UTC+00:00)

Meteor 1-21 - Pass Details

Date: 23 May 2024
Orbit: 845 x 886 km, 81.2° (Epoch: 15 June)

Event Time Altitude Azimuth Distance (km) Brightness Sun altitude
Exits shadow 00:04:42 38° 177° (S) 1,292 4.6 -20.3°
Maximum altitude 00:06:58 77° 99° (E) 891 4.2 -20.2°
Drops below altitude 10° 00:12:43 10° 14° (NNE) 2,532 7.9 -19.9°
Sets 00:15:11 0° 13° (NNE) 3,481 9.0 -19.8°
